Regional Weather Roundup
Issued by NWS

Home | Current Version | Previous Version | Graphics & Text | Print | Product List | Glossary On
Versions: 1 2 3 4 5 6 7 8 9 10 11 12 13 14 15 16 17 18 19 20 21 22 23 24 25 26 27 28 29 30 31 32 33 34 35 36 37 38 39 40 41 42 43 44 45 46 47 48 49 50
000
ASUS45 KCYS 221410
RWRWY

WYOMING REGIONAL WEATHER ROUNDUP
NATIONAL WEATHER SERVICE CHEYENNE WY
800 AM MDT MON SEP 22 2014

NOTE:  "FAIR" INDICATES FEW OR NO CLOUDS BELOW 12,000 FEET
WITH NO SIGNIFICANT WEATHER AND/OR OBSTRUCTIONS TO VISIBILITY.

WYZ001-221500-
YELLOWSTONE NATIONAL PARK

CITY           SKY/WX    TMP DP  RH WIND       PRES   REMARKS
LK YELLOWSTONE   N/A     47  45  93 CALM      30.29S
W YELLOWSTONE  NOT AVBL

$$
WYZ002>013-054>058-071-098>099-221500-
NORTHERN WYOMING

CITY           SKY/WX    TMP DP  RH WIND       PRES   REMARKS
JACKSON        CLOUDY    50  48  93 SW5       30.23S
CODY             N/A    N/A N/A N/A MISG        N/A
GREYBULL       MOCLDY    61  48  62 N3        30.01S
WORLAND        MOSUNNY   56  48  74 CALM      30.02S
SHERIDAN       PTSUNNY   55  47  74 CALM      30.00S
BUFFALO        PTSUNNY   55  44  66 N6        30.04F
GILLETTE       PTSUNNY   56  41  57 S16G26    30.04F
HULETT         FAIR      59  41  51 MISG      30.07
NEWCASTLE      FAIR      59  37  44 SE10      30.11

$$
WYZ014>020-022>026-101>103-221500-
CENTRAL WYOMING

CITY           SKY/WX    TMP DP  RH WIND       PRES   REMARKS
BIG PINEY      LGT RAIN  49  48  97 W6        30.29R FOG
PINEDALE       RAIN      46  46 100 CALM      30.29R
DUBOIS         FAIR      46  41  81 NW14      30.21F
LANDER         MOCLDY    57  42  57 CALM      30.12S
RIVERTON       MOCLDY    52  43  71 SW6       30.13R
CASPER         MOSUNNY   61  45  55 S8G18     30.13S
DOUGLAS        MOSUNNY   54  41  61 CALM      30.13F

$$
WYZ021-027>030-104>119-221500-
SOUTHERN WYOMING

CITY           SKY/WX    TMP DP  RH WIND       PRES   REMARKS
EVANSTON       MOCLDY    46  44  93 SE5       30.27S
KEMMERER       LGT RAIN  46  46 100 S3        30.29R
FORT BRIDGER   PTSUNNY   47  47  98 NW6       30.30S
ROCK SPRINGS   FOG       48  48 100 S3        30.26F VSB<1/4
DIXON          CLOUDY    48  46  94 CALM      30.30S
RAWLINS        MOSUNNY   55  47  74 W6        30.25F
SARATOGA       FAIR      52  45  76 CALM      30.28S
LARAMIE        LGT RAIN  57  46  66 SW9G25    30.27F
CHEYENNE       LGT RAIN  50  47  89 SW10      30.24R
TORRINGTON     MOSUNNY   59  43  55 SE10      30.12F
PINE BLUFFS    CLOUDY    54  46  76 SW9       30.21R

$$



USA.gov is the U.S. government's official web portal to all federal, state and local government web resources and services.